sat.trackr.live / text

‹ back to catalog

STARLINK-6311

NORAD 56537 · 2023-065AL

PAYLOAD ACTIVE UNKNOWN

§ Identity

Operator
Country
US
Launch date
2023-05-14
Launch site
AFETR
Launch vehicle
Mass (kg)
RCS (m²)

Purposes: comms

External: N2YO · Heavens-Above · Gunter

§ Orbital elements

Epoch: 2026-09-20T04:49:05.910240Z

Period
94.27 min
Inclination
43.0021°
Eccentricity
0.0000826
Mean motion
15.27575393 rev/d
Perigee alt
482.5 km
Apogee alt
483.6 km
Semi-major
6,861.2 km
B*
9.9779e-6
RAAN
208.1993°
Arg perigee
268.9371°
Mean anomaly
91.1386°
Rev number
18,618

§ Raw data

STARLINK-63111 56537U 23065AL  26263.20076285  .00000013  00000+0  99779-5 0  99902 56537  43.0021 208.1993 0000826 268.9371  91.1386 15.27575393186181

JSON: /api/v1/satellites/56537 · /tle

For live sub-satellite position, see the globe view (requires WebGL).

§ Visibility from observer

Set your observer location to see the next 7 days of passes ≥ 10°. The values pass through the URL so the page stays shareable.

No JS? Fill the form by hand. The geolocation button needs JavaScript.